Location: Bois de la Silve
(44.4667°N, 6.7833°E)
Time: 20:50:27
(UTC+00:00)

Cosmos 1782 Rocket - Pass Details

Date: 14 July 2020
Orbit: 606 x 633 km, 82.5° (Epoch: 14 August)

Event Time Altitude Azimuth Distance (km) Brightness Sun altitude
Exits shadow 02:53:01 - 181° (S) 2,410 6.2 -10.4°
Reaches altitude 10° 02:54:01 10° 180° (S) 2,002 5.8 -10.3°
Maximum altitude 02:58:27 73° 97° (E) 659 3.8 -9.7°
Drops below altitude 10° 03:02:52 10° 12° (NNE) 2,003 7.1 -9.2°
Sets 03:05:06 0° 11° (N) 2,910 8.0 -8.9°
